Weather reports worldwide

Advertisment
Meierwik, Germany (10033): temperature & dewpoint: 15.06.2018 23:00:00 - 21.06.2018 23:00:00 (CEST)Meierwik, Germany (10033): wind speed & gusts: 15.06.2018 23:00:00 - 21.06.2018 23:00:00 (CEST)Meierwik, Germany (10033): wind direction: 15.06.2018 23:00:00 - 21.06.2018 23:00:00 (CEST)Meierwik, Germany (10033): reduced air pressure: 15.06.2018 23:00:00 - 21.06.2018 23:00:00 (CEST)Meierwik, Germany (10033): visibility: 15.06.2018 23:00:00 - 21.06.2018 23:00:00 (CEST)
Date & Time tt [°C] td [°C] ff [km/h] ff [kn] fx [km/h] fx [kn] dd ppp [hPa] vv [km]
21.06.2018 23:00:00 10,8 7,5 32 18 - - WNW 1013,3 -
21.06.2018 22:00:00 11,2 7,1 32 18 68 37 WNW 1013,5 -
21.06.2018 21:00:00 12,2 6,5 47 25 65 35 WNW 1013,4 -
21.06.2018 20:00:00 13,4 6,3 50 27 - - NW 1013,3 -
21.06.2018 19:00:00 13,4 6,2 47 25 68 37 NW 1012,9 -
21.06.2018 18:00:00 13,6 8,4 43 23 65 35 WNW 1012,4 20
21.06.2018 17:00:00 12,0 7,3 47 25 - - NW 1012,2 20
21.06.2018 16:00:00 13,6 8,9 43 23 54 29 WNW 1011,1 20
21.06.2018 15:00:00 10,6 9,1 36 19 - - W 1011,0 12
21.06.2018 14:00:00 10,6 8,9 40 21 - - WNW 1010,5 10
21.06.2018 13:00:00 11,1 8,8 25 14 - - WNW 1009,9 9
21.06.2018 12:00:00 12,3 10,0 25 14 - - NW 1009,4 9
21.06.2018 11:00:00 11,4 9,3 22 12 - - NW 1009,6 9
21.06.2018 10:00:00 11,9 8,9 18 10 - - NW 1009,5 9
21.06.2018 09:00:00 13,2 9,1 18 10 - - NW 1009,9 20
21.06.2018 08:00:00 12,8 8,8 14 8 - - WNW 1010,3 20
21.06.2018 07:00:00 12,7 9,1 18 10 - - NW 1010,5 20
21.06.2018 06:00:00 12,7 9,3 25 14 - - WNW 1010,9 20
21.06.2018 05:00:00 12,9 9,6 22 12 - - WNW 1011,3 20
21.06.2018 04:00:00 13,5 10,6 24 13 - - WNW 1011,8 10
21.06.2018 03:00:00 13,9 12,1 25 14 - - NW 1011,9 10
21.06.2018 02:00:00 15,5 13,9 25 14 - - W 1012,0 10
21.06.2018 01:00:00 15,9 14,1 40 21 50 27 W 1012,8 8
21.06.2018 00:00:00 16,6 14,4 32 18 47 25 W 1013,0 12
20.06.2018 23:00:00 16,8 14,4 36 19 - - W 1013,5 15
20.06.2018 22:00:00 17,1 14,6 32 18 47 25 W 1013,9 15
20.06.2018 21:00:00 17,5 14,8 36 19 54 29 W 1014,0 12
20.06.2018 20:00:00 18,3 14,8 40 21 - - W 1014,4 10
20.06.2018 19:00:00 18,9 14,9 54 29 72 39 W 1014,8 10
20.06.2018 18:00:00 20,5 15,3 50 27 68 37 W 1015,1 -
20.06.2018 17:00:00 20,6 16,0 47 25 - - W 1015,7 -
20.06.2018 16:00:00 22,6 16,1 43 23 68 37 W 1015,8 -
20.06.2018 15:00:00 21,9 15,7 43 23 68 37 WSW 1016,1 -
20.06.2018 14:00:00 22,2 16,0 32 18 - - WSW 1016,8 -
20.06.2018 13:00:00 21,1 15,9 36 19 58 31 WSW 1017,3 -
20.06.2018 12:00:00 20,5 15,9 25 14 50 27 WSW 1017,7 -
20.06.2018 11:00:00 20,2 15,5 29 16 - - WSW 1017,8 -
20.06.2018 10:00:00 19,4 15,2 29 16 - - SW 1018,0 -
20.06.2018 09:00:00 17,3 13,4 22 12 47 25 SSW 1018,5 -
20.06.2018 08:00:00 15,1 11,8 25 14 - - SSW 1018,5 -
20.06.2018 07:00:00 14,1 10,6 29 16 - - S 1019,2 -
20.06.2018 06:00:00 13,4 10,2 18 10 - - S 1019,9 20
20.06.2018 05:00:00 13,1 10,1 14 8 - - SSW 1020,2 20
20.06.2018 04:00:00 13,1 9,6 11 6 - - SSW 1020,6 20
20.06.2018 03:00:00 13,3 9,2 14 8 - - WSW 1021,1 20
20.06.2018 02:00:00 13,4 9,0 18 10 - - W 1021,6 20
20.06.2018 01:00:00 13,3 9,0 22 12 - - W 1021,8 20
20.06.2018 00:00:00 12,6 8,7 18 10 - - W 1021,9 20
19.06.2018 23:00:00 13,1 8,4 18 10 - - W 1022,1 20
19.06.2018 22:00:00 14,2 9,2 29 16 - - W 1021,8 25
19.06.2018 21:00:00 15,1 9,1 32 18 47 25 W 1021,5 25
19.06.2018 20:00:00 16,5 8,8 40 21 - - W 1021,4 25
19.06.2018 19:00:00 17,3 8,4 36 19 - - WNW 1021,1 30
19.06.2018 18:00:00 17,8 9,0 36 19 58 31 WNW 1021,0 35
19.06.2018 17:00:00 18,2 8,2 36 19 - - WNW 1020,8 35
19.06.2018 16:00:00 18,8 7,9 36 19 61 33 WNW 1020,3 35
19.06.2018 15:00:00 18,1 10,2 43 23 58 31 WNW 1019,9 30
19.06.2018 14:00:00 18,5 9,8 40 21 - - WNW 1019,4 30
19.06.2018 13:00:00 18,7 10,1 43 23 54 29 WNW 1018,7 30
19.06.2018 12:00:00 17,6 12,9 32 18 47 25 WNW 1018,4 25
19.06.2018 11:00:00 18,7 13,6 25 14 - - W 1018,1 20
19.06.2018 10:00:00 17,2 12,7 40 21 50 27 W 1017,4 15
19.06.2018 09:00:00 17,3 13,7 29 16 - - W 1016,7 8
19.06.2018 08:00:00 16,6 13,7 25 14 - - W 1016,2 7
19.06.2018 07:00:00 16,2 13,6 22 12 - - WSW 1015,9 8
19.06.2018 06:00:00 16,1 13,5 25 14 47 25 WSW 1015,9 10
19.06.2018 05:00:00 15,7 13,4 22 12 - - W 1015,5 10
19.06.2018 04:00:00 15,2 12,9 22 12 - - WSW 1015,7 10
19.06.2018 03:00:00 15,2 12,8 22 12 - - W 1015,9 12
19.06.2018 02:00:00 15,3 12,6 32 18 - - W 1016,3 12
19.06.2018 01:00:00 15,4 12,9 29 16 - - W 1016,3 12
19.06.2018 00:00:00 15,9 13,5 29 16 - - W 1016,5 12
18.06.2018 23:00:00 15,9 13,0 18 10 - - WSW 1016,4 12
18.06.2018 22:00:00 16,0 12,7 18 10 - - WSW 1016,0 12
18.06.2018 21:00:00 16,7 13,0 18 10 - - WSW 1016,0 12
18.06.2018 20:00:00 17,4 13,2 29 16 - - W 1016,2 15
18.06.2018 19:00:00 17,9 13,5 32 18 50 27 W 1016,1 12
18.06.2018 18:00:00 18,0 14,0 36 19 47 25 W 1016,0 15
18.06.2018 17:00:00 17,6 14,7 22 12 - - WSW 1016,3 10
18.06.2018 16:00:00 17,1 14,8 22 12 - - WSW 1016,7 8
18.06.2018 15:00:00 16,3 14,3 18 10 - - SSW 1016,7 8
18.06.2018 14:00:00 16,1 13,3 25 14 - - SW 1016,8 4,5
18.06.2018 13:00:00 17,4 12,4 22 12 - - WSW 1016,9 15
18.06.2018 12:00:00 16,5 12,4 22 12 - - SW 1016,9 15
18.06.2018 11:00:00 17,5 11,9 22 12 - - SW 1016,7 15
18.06.2018 10:00:00 16,5 12,5 14 8 - - SW 1016,8 14
18.06.2018 09:00:00 15,5 12,4 18 10 - - SSW 1016,7 10
18.06.2018 08:00:00 15,3 12,5 14 8 - - SSW 1016,9 10
18.06.2018 07:00:00 13,0 11,5 14 8 - - SSW 1016,6 10
18.06.2018 06:00:00 12,1 10,6 18 10 - - SSW 1016,8 10
18.06.2018 05:00:00 11,6 10,4 18 10 - - SSW 1016,8 9
18.06.2018 04:00:00 11,9 10,7 18 10 - - SSW 1016,8 12
18.06.2018 03:00:00 12,2 10,8 22 12 - - SW 1017,2 15
18.06.2018 02:00:00 12,2 10,6 14 8 - - SSW 1017,0 18
18.06.2018 01:00:00 12,9 10,6 14 8 - - SW 1017,0 18
18.06.2018 00:00:00 14,0 10,8 18 10 - - W 1016,7 18
17.06.2018 23:00:00 14,4 10,5 18 10 - - W 1016,6 18
17.06.2018 22:00:00 15,0 10,4 22 12 - - W 1016,4 18
17.06.2018 21:00:00 15,6 10,5 32 18 - - W 1016,2 20
17.06.2018 20:00:00 17,6 10,0 36 19 - - W 1015,7 25
17.06.2018 19:00:00 18,4 9,4 40 21 50 27 WNW 1015,2 25
17.06.2018 18:00:00 19,2 8,4 40 21 54 29 W 1015,0 25
17.06.2018 17:00:00 17,9 7,9 47 25 - - WNW 1014,8 25
17.06.2018 16:00:00 18,8 9,5 43 23 54 29 W 1014,2 20
17.06.2018 15:00:00 18,0 10,6 32 18 47 25 W 1013,9 20
17.06.2018 14:00:00 19,1 9,6 40 21 - - W 1013,2 20
17.06.2018 13:00:00 18,8 12,1 32 18 54 29 W 1012,8 20
17.06.2018 12:00:00 16,5 12,9 32 18 50 27 WSW 1012,7 15
17.06.2018 11:00:00 18,0 12,2 25 14 - - WSW 1012,1 15
17.06.2018 10:00:00 17,4 11,7 25 14 - - WSW 1012,0 15
17.06.2018 09:00:00 16,6 12,4 18 10 - - SW 1012,0 15
17.06.2018 08:00:00 15,6 12,3 18 10 - - SW 1011,9 10
17.06.2018 07:00:00 14,5 13,2 14 8 - - S 1012,1 7
17.06.2018 06:00:00 13,5 12,4 18 10 - - SSW 1012,3 -
17.06.2018 05:00:00 13,5 12,0 22 12 - - S 1012,4 -
17.06.2018 04:00:00 13,8 12,3 18 10 - - S 1012,5 -
17.06.2018 03:00:00 14,1 12,4 18 10 - - SSW 1012,8 -
17.06.2018 02:00:00 15,1 14,1 18 10 - - SW 1013,1 -
17.06.2018 01:00:00 14,8 14,2 7 4 - - W 1012,8 -
17.06.2018 00:00:00 14,7 14,1 11 6 - - SSW 1012,8 -
16.06.2018 23:00:00 15,5 14,8 7 4 - - SW 1013,1 -
16.06.2018 22:00:00 16,7 15,9 4 2 - - WSW 1012,9 -
16.06.2018 21:00:00 17,7 16,7 7 4 - - SSE 1012,8 -
16.06.2018 20:00:00 17,9 16,9 11 6 - - SE 1012,7 -
16.06.2018 19:00:00 17,7 16,5 14 8 - - NNW 1012,6 -
16.06.2018 18:00:00 19,0 16,4 7 4 - - NNE 1012,4 15
16.06.2018 17:00:00 19,6 16,1 14 8 - - SE 1012,8 18
16.06.2018 16:00:00 19,4 16,3 14 8 - - SSE 1013,0 18
16.06.2018 15:00:00 17,7 15,9 14 8 - - E 1013,3 15
16.06.2018 14:00:00 16,9 15,6 11 6 - - ENE 1014,2 15
16.06.2018 13:00:00 17,2 15,5 7 4 - - ESE 1015,2 7
16.06.2018 12:00:00 17,3 15,7 11 6 - - ESE 1015,1 12
16.06.2018 11:00:00 16,1 14,9 11 6 - - ESE 1015,3 20
16.06.2018 10:00:00 15,8 13,1 18 10 - - SSE 1015,3 7
16.06.2018 09:00:00 17,0 11,7 18 10 - - SE 1015,4 25
16.06.2018 08:00:00 16,0 10,8 14 8 - - SE 1015,7 25
16.06.2018 07:00:00 14,4 9,6 18 10 - - ESE 1015,9 25
16.06.2018 06:00:00 13,3 10,1 14 8 - - SE 1016,3 25
16.06.2018 05:00:00 12,8 10,5 14 8 - - SSE 1016,7 25
16.06.2018 04:00:00 12,9 10,2 7 4 - - SE 1017,0 25
16.06.2018 03:00:00 13,2 10,4 14 8 - - SSE 1017,0 25
16.06.2018 02:00:00 13,4 10,1 11 6 - - S 1017,2 25
16.06.2018 01:00:00 12,0 9,3 7 4 - - SSE 1017,1 25
16.06.2018 00:00:00 11,8 8,4 14 8 - - SE 1017,1 25
15.06.2018 23:00:00 12,2 8,9 4 2 - - N 1017,4 25

tt = temperature
td = dewpoint
ff = wind speed
fx = gusts
dd = wind direction
ppp = reduced air pressure
vv = visibility

Next stations